Regional Weather Roundup
Issued by NWS

Home | Current Version | Previous Version | Text Only | Print | Product List | Glossary Off
Versions: 1 2 3 4 5 6 7 8 9 10 11 12 13 14 15 16 17 18 19 20 21 22 23 24 25 26 27 28 29 30 31 32 33 34 35 36 37 38 39 40 41 42 43 44 45 46 47 48 49 50

000
ASUS43 KLMK 281402
RWRKY
KENTUCKY REGIONAL WEATHER ROUNDUP
NATIONAL WEATHER SERVICE LOUISVILLE KY
900 AM EST FRI NOV 28 2014

NOTE "FAIR" INDICATES FEW OR NO CLOUDS BELOW 12,000 FEET
WITH NO SIGNIFICANT WEATHER AND/OR OBSTRUCTIONS TO VISIBILITY.

KYZ001>023-026-027-061>063-070>075-281500-
WESTERN AND SOUTH CENTRAL KENTUCKY

CITY           SKY/WX    TMP DP  RH WIND       PRES   REMARKS
PADUCAH        SUNNY     29  24  82 S8        30.38S WCI  21
HENDERSON      SUNNY     28  21  74 S9        30.38F WCI  20
OWENSBORO      PTSUNNY   28  25  89 S9        30.41F FOG     WCI  19
HOPKINSVILLE   MOSUNNY   29  24  82 S6        30.41S WCI  23
BOWLING GREEN  CLOUDY    28  22  78 CALM      30.44S
GLASGOW        NOT AVBL
$$

KYZ024-025-028>034-038-045-046-053-281500-
NORTH CENTRAL KENTUCKY

CITY           SKY/WX    TMP DP  RH WIND       PRES   REMARKS
LOUISVILLE/SDF CLOUDY    27  19  72 S5        30.42S WCI  22
LOUISVILLE/LOU CLOUDY    27  19  72 S5        30.42F WCI  22
FORT KNOX      CLOUDY    25  22  87 S3        30.39F
$$

KYZ035>037-039>044-047>052-055>060-089>105-281500-
NORTHEAST KENTUCKY

CITY           SKY/WX    TMP DP  RH WIND       PRES   REMARKS
LEXINGTON      CLOUDY    26  20  77 S6        30.41S WCI  19
COVINGTON      CLOUDY    27  18  69 S5        30.37F WCI  22
FRANKFORT      CLOUDY    27  18  69 S6        30.39F WCI  20
$$

KYZ054-064>069-076>088-106>120-281500-
SOUTHEAST KENTUCKY

CITY           SKY/WX    TMP DP  RH WIND       PRES   REMARKS
JACKSON        CLOUDY    27  15  61 CALM      30.39S
LONDON         PTSUNNY   27  16  63 W3        30.42R
SOMERSET       NOT AVBL
MIDDLESBORO    NOT AVBL
MONTICELLO     CLOUDY    28  19  69 CALM      30.46R
$$




USA.gov is the U.S. government's official web portal to all federal, state and local government web resources and services.